DateTimeUTC,F1_A11,F1_S11,BsB_S11,BsG_S11,BsR_S11,BbsB_S11,BbsG_S11,BbsR_S11,BaB_A11,BaG_A11,BaR_A11,Tu_S11,T_S11,Uu_S11,U_S11,P_S11,T1_A11
2021-08-03T08:00:00Z,00000200,20000000,,,,,,,0000.42,0000.02,0000.17,17.9,24.7,03.2,02.1,0672.0,30.9
2021-08-03T08:01:00Z,00000200,20000000,,,,,,,-000.27,-000.25,0000.08,17.9,24.7,03.2,02.1,0672.0,30.9
2021-08-03T08:02:00Z,00000200,20000000,,,,,,,-000.11,0000.40,-000.07,17.9,24.7,03.2,02.1,0672.0,30.9
2021-08-03T08:03:00Z,00000200,60000000,,,,,,,0002.09,0001.42,0001.41,17.9,24.7,03.2,02.1,0672.0,30.9
2021-08-03T08:04:00Z,00000200,40000000,0009.82,0007.72,0004.42,0001.58,0000.94,0000.43,0002.01,0002.18,0001.52,18.0,24.6,03.3,02.2,0673.0,30.9
2021-08-03T08:05:00Z,00000200,00000000,0009.49,0007.73,0004.57,0001.02,0001.07,0000.53,0001.99,0001.45,0001.30,18.1,24.5,03.4,02.3,0673.0,30.9
2021-08-03T08:06:00Z,00000200,00000000,0008.97,0006.86,0004.47,0001.31,0001.18,0000.40,0001.92,0001.87,0001.30,18.1,24.5,03.3,02.3,0673.0,30.9
2021-08-03T08:07:00Z,00000200,00000000,0008.93,0006.72,0004.10,0000.84,0000.76,0000.48,0001.63,0001.71,0001.01,18.1,24.5,03.3,02.2,0673.0,30.9
2021-08-03T08:08:00Z,00000200,00000000,0008.06,0005.74,0003.61,0000.40,0000.84,0000.59,0001.29,0000.98,0001.35,18.1,24.5,03.3,02.3,0673.0,30.9
2021-08-03T08:09:00Z,00000200,00000000,0009.71,0006.50,0004.22,0001.16,0000.73,0000.47,0002.09,0001.91,0000.97,18.1,24.5,03.4,02.3,0673.0,30.9
2021-08-03T08:10:00Z,00000200,00000000,0009.63,0007.96,0004.29,0000.89,0000.83,0000.50,0001.97,0001.64,0001.42,18.1,24.5,03.5,02.3,0673.0,30.9
2021-08-03T08:11:00Z,00000200,00000000,0009.02,0006.97,0004.23,0001.02,0000.98,0000.31,0001.62,0001.97,0001.20,18.1,24.5,03.4,02.3,0673.0,30.9
2021-08-03T08:12:00Z,00000200,00000000,0008.84,0006.23,0003.90,0001.17,0000.94,0000.85,0001.57,0001.61,0001.43,18.1,24.5,03.4,02.3,0673.0,30.9
2021-08-03T08:13:00Z,00000200,00000000,0009.57,0006.47,0003.95,0001.26,0001.19,0001.05,0002.19,0001.68,0001.21,18.1,24.5,03.3,02.2,0673.0,30.9
2021-08-03T08:14:00Z,00000200,00000000,0009.25,0007.30,0004.48,0000.98,0001.05,0000.59,0001.80,0001.57,0001.44,18.1,24.4,03.4,02.3,0673.0,30.9
2021-08-03T08:15:00Z,00000200,00000000,0010.25,0007.59,0005.09,0000.98,0000.99,0000.54,0002.10,0001.78,0001.39,18.1,24.5,03.4,02.3,0673.0,30.9
2021-08-03T08:16:00Z,00000200,00000000,0011.14,0008.02,0005.07,0000.49,0001.35,0000.63,0001.93,0001.76,0001.03,18.1,24.5,03.3,02.2,0673.0,30.9
2021-08-03T08:17:00Z,00000200,00000000,0010.62,0008.03,0005.11,0001.30,0001.05,0000.58,0002.32,0002.44,0002.01,18.1,24.5,03.3,02.3,0673.0,30.9
2021-08-03T08:18:00Z,00000200,00000000,0009.46,0007.08,0004.67,0001.20,0000.84,0000.42,0001.83,0001.67,0001.11,18.1,24.5,03.3,02.3,0673.1,30.9
2021-08-03T08:19:00Z,00000200,00000000,0009.30,0007.14,0004.07,0001.06,0000.86,0000.37,0001.60,0001.32,0001.27,18.1,24.5,03.4,02.3,0673.0,30.9
2021-08-03T08:20:00Z,00000200,00000000,0010.11,0007.09,0004.46,0000.85,0000.89,0000.72,0002.32,0002.01,0001.18,18.1,24.4,03.3,02.3,0673.0,30.9
2021-08-03T08:21:00Z,00000200,00000000,0010.61,0008.03,0004.67,0001.49,0001.08,0000.74,0001.62,0001.38,0001.66,18.1,24.5,03.3,02.3,0673.0,30.9
2021-08-03T08:22:00Z,00000200,00000000,0011.08,0007.85,0004.71,0001.00,0001.43,0000.63,0002.45,0002.17,0001.02,18.1,24.5,03.2,02.2,0673.0,30.9
2021-08-03T08:23:00Z,00000200,00000000,0010.40,0008.20,0004.75,0001.48,0001.19,0000.57,0002.12,0002.37,0001.75,18.1,24.5,03.2,02.2,0673.0,30.9
2021-08-03T08:24:00Z,00000200,00000000,0010.42,0007.58,0004.54,0000.93,0001.05,0000.64,0002.35,0001.56,0001.61,18.1,24.5,03.2,02.2,0673.0,30.9
2021-08-03T08:25:00Z,00000200,00000000,0010.36,0007.60,0004.58,0001.09,0000.89,0000.48,0002.23,0002.16,0001.69,18.1,24.5,03.3,02.2,0673.0,30.9
2021-08-03T08:26:00Z,00000200,00000000,0009.56,0007.61,0004.59,0001.31,0000.70,0000.62,0002.00,0001.93,0001.69,18.1,24.5,03.3,02.2,0673.0,30.9
2021-08-03T08:27:00Z,00000200,00000000,0011.07,0007.96,0004.91,0001.62,0001.18,0000.73,0002.03,0001.72,0000.98,18.2,24.5,03.3,02.2,0673.0,30.9
2021-08-03T08:28:00Z,00000200,00000000,0010.92,0007.97,0004.77,0001.53,0000.97,0000.69,0002.24,0001.99,0001.76,18.2,24.5,03.3,02.2,0673.0,30.9
2021-08-03T08:29:00Z,00000200,00000000,0010.75,0008.27,0004.77,0001.18,0001.09,0000.52,0001.90,0002.02,0001.36,18.2,24.5,03.2,02.2,0673.0,30.9
2021-08-03T08:30:00Z,00000200,00000000,0011.08,0007.60,0004.50,0000.81,0001.26,0000.72,0002.41,0002.00,0001.59,18.2,24.5,03.2,02.2,0673.0,30.9
2021-08-03T08:31:00Z,00000200,00000000,0009.62,0007.45,0004.54,0000.45,0001.05,0000.74,0002.09,0001.94,0001.66,18.2,24.4,03.3,02.2,0673.0,30.9
2021-08-03T08:32:00Z,00000200,00000000,0009.73,0007.44,0004.46,0001.11,0000.83,0000.64,0001.93,0001.82,0001.31,18.2,24.5,03.3,02.2,0673.0,31.0
2021-08-03T08:33:00Z,00000200,00000000,0011.12,0007.72,0004.85,0000.95,0001.13,0001.14,0002.17,0002.11,0001.18,18.2,24.5,03.2,02.2,0673.0,31.0
2021-08-03T08:34:00Z,00000200,00000000,0010.58,0007.78,0004.42,0001.17,0001.32,0000.88,0002.24,0001.73,0001.77,18.2,24.5,03.3,02.3,0673.0,30.9
2021-08-03T08:35:00Z,00000200,00000000,0010.51,0007.68,0004.96,0000.90,0001.15,0000.74,0001.94,0002.04,0001.49,18.2,24.5,03.2,02.2,0673.0,30.9
2021-08-03T08:36:00Z,00000200,00000000,0009.61,0007.48,0004.67,0001.00,0001.25,0000.86,0002.29,0001.83,0001.28,18.2,24.5,03.3,02.2,0673.0,30.9
2021-08-03T08:37:00Z,00000200,00000000,0009.57,0007.61,0004.57,0000.77,0000.63,0000.79,0001.92,0001.79,0001.43,18.2,24.5,03.3,02.2,0673.0,30.9
2021-08-03T08:38:00Z,00000200,00000000,0010.72,0007.42,0004.97,0000.75,0000.92,0000.62,0001.73,0001.79,0001.09,18.2,24.5,03.3,02.2,0673.0,31.0
2021-08-03T08:39:00Z,00000200,00000000,0010.33,0007.45,0004.60,0001.69,0001.13,0000.64,0002.26,0001.95,0001.56,18.2,24.5,03.2,02.2,0673.0,31.0
2021-08-03T08:40:00Z,00000200,00000000,0010.79,0007.57,0005.14,0000.86,0000.92,0000.69,0001.67,0001.63,0001.40,18.2,24.5,03.2,02.2,0673.0,31.0
2021-08-03T08:41:00Z,00000200,00000000,0010.07,0007.64,0004.76,0001.05,0001.24,0000.26,0002.11,0001.57,0001.19,18.2,24.5,03.3,02.2,0673.0,31.0
2021-08-03T08:42:00Z,00000200,00000000,0010.75,0008.14,0005.27,0001.18,0001.20,0000.59,0002.46,0002.13,0001.72,18.2,24.5,03.2,02.2,0673.0,31.0
2021-08-03T08:43:00Z,00000200,00000000,0010.33,0007.93,0004.68,0001.37,0001.07,0000.66,0002.01,0002.24,0001.36,18.2,24.5,03.2,02.2,0673.0,31.0
2021-08-03T08:44:00Z,00000200,00000000,0010.89,0008.05,0005.11,0001.03,0000.90,0000.87,0002.45,0001.55,0001.56,18.2,24.5,03.2,02.2,0673.0,30.9
2021-08-03T08:45:00Z,00000200,00000000,0010.66,0007.81,0005.17,0001.35,0000.66,0000.75,0001.61,0001.98,0001.34,18.2,24.5,03.2,02.2,0673.0,31.0
2021-08-03T08:46:00Z,00000200,00000000,0011.16,0008.39,0004.70,0001.49,0001.04,0000.68,0002.15,0001.95,0001.57,18.2,24.5,03.1,02.1,0673.0,31.0
2021-08-03T08:47:00Z,00000200,00000000,0011.89,0007.90,0005.01,0001.29,0001.05,0000.78,0002.28,0001.76,0001.16,18.2,24.5,03.1,02.1,0673.0,30.9
2021-08-03T08:48:00Z,00000200,00000000,0011.03,0008.37,0004.90,0001.31,0001.41,0000.73,0002.23,0002.14,0001.69,18.2,24.5,03.0,02.0,0673.0,31.0
2021-08-03T08:49:00Z,00000200,00000000,0011.30,0007.81,0005.05,0001.65,0000.93,0000.61,0002.38,0002.14,0001.48,18.2,24.5,03.0,02.0,0673.1,30.9
2021-08-03T08:50:00Z,00000200,00000000,0011.07,0007.91,0004.69,0001.44,0000.99,0000.91,0001.96,0001.84,0001.82,18.2,24.5,03.0,02.0,0673.0,30.9
2021-08-03T08:51:00Z,00000200,00000000,0011.30,0007.97,0005.18,0001.36,0000.98,0000.72,0002.07,0002.11,0001.26,18.2,24.5,02.9,02.0,0673.0,30.9
2021-08-03T08:52:00Z,00000200,00000000,0011.81,0008.08,0004.84,0001.20,0000.99,0000.65,0002.57,0001.97,0001.57,18.2,24.5,02.9,02.0,0673.0,30.9
2021-08-03T08:53:00Z,00000200,00000000,0011.49,0008.31,0005.02,0001.17,0001.33,0000.93,0002.26,0002.25,0001.76,18.2,24.5,02.9,02.0,0673.0,30.9
2021-08-03T08:54:00Z,00000200,00000000,0010.73,0008.70,0005.17,0001.65,0000.83,0000.15,0002.08,0002.15,0001.74,18.2,24.5,02.9,02.0,0673.0,30.9
2021-08-03T08:55:00Z,00000200,00000000,0011.37,0008.46,0005.40,0001.48,0001.26,0000.72,0002.67,0002.42,0001.24,18.2,24.5,02.9,02.0,0673.0,30.9
2021-08-03T08:56:00Z,00000200,00000000,0011.91,0008.44,0004.78,0001.09,0001.43,0000.32,0001.85,0001.64,0001.69,18.2,24.5,03.0,02.0,0673.0,30.9
2021-08-03T08:57:00Z,00000200,40000000,,,,,,,0000.84,0001.09,0000.78,18.3,24.5,02.8,01.9,0673.0,30.9
2021-08-03T08:58:00Z,00000200,60000000,,,,,,,0000.12,-000.27,0000.03,18.0,24.6,02.8,01.9,0672.0,31.0
2021-08-03T08:59:00Z,00000200,20000000,,,,,,,-000.17,-000.25,-000.50,18.0,24.7,02.9,01.9,0672.0,30.9
